[[[{"header":{"parameterUnit":"kt","parameterCategory":2,"dx":1,"dy":1,"la1":30.253999710083008,"la2":30.299108505249023,"lo1":-89.0895004272461,"lo2":-89.04439544677734,"nx":28,"ny":28,"refTime":"2022-10-15T21:00:00:Z","depth":0,"parameterNumber":1,"parameterNumberName":"U-component_of_WINDS"},"data":[0.0902,0.0852,0.0857,0.08,0.0794,0.0755,0.0742,0.0725,0.0712,0.0664,0.0636,0.0632,0.0617,0.0582,0.055,0.0548,0.0533,0.0513,0.0514,0.0605,0.0618,0.063,0.0642,0.051,0.051,0.0418,0.0417,0.0417,0.0966,0.0961,0.0933,0.0909,0.0884,0.0906,0.0887,0.0864,0.0828,0.0811,0.0784,0.0741,0.0706,0.0698,0.0664,0.0637,0.0643,0.0627,0.0628,0.0624,0.0723,0.0736,0.0622,0.0622,0.0622,0.0622,0.0622,0.0622,0.1085,0.1055,0.1044,0.1013,0.1002,0.0985,0.0956,0.0954,0.0925,0.0893,0.0902,0.0859,0.0841,0.0801,0.0788,0.0753,0.0771,0.0753,0.0747,0.0742,0.0735,0.0864,0.0747,0.0748,0.0748,0.0748,0.0748,0,0.1172,0.1178,0.1152,0.1127,0.1105,0.1085,0.1067,0.105,0.106,0.1035,0.0999,0.0978,0.0936,0.0899,0.0868,0.0858,0.0874,0.0877,0.0864,0.0858,0.0856,0.0853,0.1011,0.0879,0.0881,0.0881,0.0882,0.0882,0.1289,0.1255,0.1245,0.1226,0.1218,0.1187,0.1169,0.1181,0.1161,0.1139,0.111,0.1076,0.1049,0.0987,0.0981,0.0948,0.0955,0.0905,0.095,0.0946,0.0951,0.0952,0.0947,0.0894,0.0893,0.0892,0.0891,0,0.1354,0.1362,0.131,0.1303,0.13,0.1263,0.1255,0.1225,0.1227,0.1184,0.1175,0.1175,0.1138,0.1141,0.1099,0.1101,0.1033,0.1042,0.1039,0.104,0.0993,0.0996,0.0844,0.0823,0.0963,0.0962,0.0961,0,0.1456,0.141,0.1424,0.1394,0.1343,0.1358,0.1306,0.1302,0.1289,0.1256,0.1279,0.1246,0.1256,0.1224,0.1227,0.1172,0.1165,0.1162,0.1163,0.1159,0.1159,0.1145,0.115,0.117,0.1171,0.1172,0.1173,0,0.1555,0.151,0.1461,0.1452,0.144,0.1415,0.1408,0.1395,0.1376,0.1352,0.134,0.1311,0.1294,0.1269,0.1274,0.1305,0.1208,0.1251,0.1205,0.1205,0.1182,0.1183,0.1049,0.1174,0.1174,0.1174,0.1174,0,0.1637,0.1617,0.1546,0.1536,0.1523,0.1491,0.1465,0.1438,0.1421,0.1422,0.1404,0.1418,0.1373,0.1415,0.1352,0.1391,0.1372,0.1366,0.1363,0.1357,0.1403,0.1325,0.12,0.1186,0.1353,0.1355,0.1356,0,0.1747,0.1679,0.1692,0.1623,0.1592,0.162,0.1584,0.1569,0.1568,0.1539,0.1537,0.1503,0.1536,0.1526,0.1494,0.1489,0.1439,0.1497,0.1448,0.1447,0.145,0.1336,0.1316,0.1228,0.1376,0.1374,0.1372,0,0.1833,0.1822,0.1809,0.1798,0.1784,0.1758,0.1717,0.1689,0.1668,0.1651,0.1614,0.1568,0.159,0.1573,0.1581,0.1548,0.1474,0.1576,0.1575,0.1555,0.1387,0.1367,0.1352,0.1486,0.1484,0.1482,0.1387,0,0.1952,0.192,0.1886,0.1864,0.1845,0.1804,0.1811,0.179,0.1801,0.1802,0.1749,0.1738,0.1706,0.1692,0.1702,0.1627,0.1639,0.1663,0.1702,0.1629,0.1597,0.1585,0.1748,0.175,0.1751,0.1751,0,0,0.2053,0.2008,0.2024,0.1987,0.1972,0.2002,0.1956,0.1945,0.192,0.1908,0.1931,0.1863,0.1853,0.1787,0.1765,0.1753,0.1739,0.1765,0.1664,0.1654,0.1645,0.1612,0.1599,0.1753,0.1754,0.1754,0.1754,0,0.2098,0.2093,0.205,0.2039,0.2025,0.2028,0.2018,0.2008,0.2006,0.1956,0.1979,0.1948,0.1895,0.188,0.1865,0.1774,0.1791,0.1764,0.1712,0.1674,0.1663,0.1654,0.1618,0.1606,0.1757,0.1757,0.1756,0,0.2183,0.2177,0.2158,0.2129,0.2119,0.2086,0.2131,0.2095,0.207,0.2102,0.2052,0.2046,0.2027,0.1966,0.1939,0.1958,0.1838,0.1878,0.1872,0.1868,0.1831,0.1818,0.1806,0.1961,0.1962,0.1962,0,0,0.222,0.2191,0.2189,0.2139,0.2131,0.2136,0.212,0.213,0.2115,0.2108,0.2101,0.2083,0.2052,0.2031,0.2003,0.1935,0.193,0.1903,0.1893,0.1885,0.1877,0.1838,0.1825,0.1965,0.1965,0.1965,0,0,0.2237,0.2234,0.2249,0.2193,0.2178,0.2171,0.2139,0.2156,0.2132,0.2138,0.215,0.2146,0.209,0.2082,0.2117,0.2016,0.2055,0.2047,0.2023,0.201,0.2001,0.2003,0.2159,0,0,0,0,0,0.2288,0.2235,0.2249,0.2241,0.2202,0.2164,0.2159,0.217,0.2198,0.2172,0.2168,0.219,0.2104,0.2135,0.2125,0.2085,0.1999,0.1993,0.1987,0.194,0.1927,0.1916,0,0,0,0,0,0,0.2285,0.2275,0.225,0.2241,0.2233,0.2166,0.2215,0.2217,0.2201,0.2206,0.219,0.2189,0.2196,0.214,0.2131,0.2094,0.2162,0.1997,0.1992,0.1987,0.1935,0.1925,0.1916,0,0,0,0,0,0.2282,0.2274,0.2211,0.2242,0.2234,0.2237,0.2217,0.2219,0.2206,0.2202,0.2202,0.2217,0.2195,0.2188,0.2135,0.2097,0.2168,0.2165,0.1993,0.1989,0.1986,0.193,0,0,0,0,0,0,0.228,0.2274,0.2209,0.2207,0.2263,0.2241,0.2238,0.2221,0.2204,0.2204,0.223,0.2234,0.2193,0.2188,0.2182,0.2098,0.2173,0.217,0.2168,0.199,0.1987,0.1984,0,0,0,0,0,0,0.2279,0.2272,0.2208,0.2235,0.2236,0.2244,0.2241,0.2198,0.2203,0.2233,0.2236,0.2232,0.22,0.2188,0.2184,0.2116,0.2177,0.2174,0.2172,0.217,0.1988,0.1985,0,0,0,0,0,0,0.2276,0.2271,0.2236,0.2237,0.2238,0.2216,0.2206,0.2165,0.2229,0.2233,0.2235,0.2238,0.2199,0.2196,0.2184,0.2118,0.2116,0.2177,0.2175,0.2173,0.2172,0,0,0,0,0,0,0,0.2274,0.2308,0.2221,0.2238,0.2239,0.2189,0.2189,0.2188,0.223,0.2232,0.2234,0.2236,0.2196,0.2193,0.2189,0.212,0,0,0.2178,0.2176,0,0,0,0,0,0,0,0,0.231,0.2309,0.2221,0.2221,0.222,0.2189,0.2189,0.2188,0.223,0.2232,0.2234,0.2236,0.2195,0.2193,0.219,0,0,0,0,0,0,0,0,0,0,0,0,0,0,0,0.2221,0.2221,0,0.2189,0.2189,0.2189,0.223,0.2232,0.2233,0.2235,0.2195,0.2192,0.219,0,0,0,0,0,0,0,0,0,0,0,0,0,0,0,0,0,0,0,0,0,0,0,0,0,0,0,0,0,0,0,0,0,0,0,0,0,0,0,0,0,0,0,0,0,0,0,0,0,0,0,0,0,0,0,0,0,0,0,0,0,0,0,0,0,0,0,0,0]}],[{"header":{"parameterUnit":"kt","parameterCategory":2,"dx":1,"dy":1,"la1":30.253999710083008,"la2":30.299108505249023,"lo1":-89.0895004272461,"lo2":-89.04439544677734,"nx":28,"ny":28,"refTime":"2022-10-15T21:00:00:Z","depth":0,"parameterNumber":2,"parameterNumberName":"V-component_of_WINDS"},"data":[2.0306,2.0317,2.0302,2.0308,2.0295,2.0297,2.0293,2.0286,2.0276,2.0277,2.0274,2.026,2.0245,2.0239,2.0235,2.0229,2.0229,2.0244,2.0235,2.0179,2.017,2.0162,2.0158,2.0245,2.0245,2.0295,2.0295,2.0295,2.0269,2.0257,2.0255,2.0243,2.0242,2.0219,2.0207,2.0208,2.021,2.0198,2.0194,2.0193,2.019,2.0169,2.0163,2.0169,2.0157,2.0168,2.0168,2.0166,2.0106,2.0102,2.0178,2.0178,2.0178,2.0178,2.0178,2.0178,2.0197,2.0204,2.0188,2.0186,2.0176,2.0168,2.0172,2.0154,2.0152,2.0144,2.0126,2.0128,2.0113,2.0098,2.0089,2.0091,2.0075,2.0082,2.0084,2.0087,2.0092,2.0024,2.0089,2.0088,2.0088,2.0088,2.0088,0,2.014,2.0127,2.0124,2.0117,2.0114,2.0107,2.0097,2.0099,2.0065,2.0065,2.0063,2.006,2.0053,2.005,2.0041,2.0029,2.0004,2.0,2.0005,2.0014,2.0024,2.002,1.9923,1.9998,1.9997,1.9996,1.9996,1.9996,2.0068,2.0077,2.0052,2.0052,2.0042,2.0043,2.004,2.0008,2.0007,1.999,1.9998,1.9994,1.9989,1.9989,1.9967,1.9962,1.9949,1.998,1.9948,1.9957,1.9951,1.9951,1.9952,1.9987,1.9988,1.9989,1.9989,0,2.0028,2.0002,2.0012,1.9985,1.9979,1.999,1.9968,1.9973,1.9954,1.9959,1.9958,1.9929,1.9928,1.99,1.9893,1.9879,1.9899,1.9887,1.9905,1.9901,1.9926,1.9924,2.001,2.002,1.9929,1.993,1.9931,0,1.9956,1.9969,1.993,1.9936,1.995,1.9918,1.9933,1.9918,1.9903,1.9907,1.9873,1.9877,1.9841,1.9842,1.982,1.9832,1.983,1.982,1.9814,1.9823,1.9825,1.9822,1.9818,1.98,1.98,1.9799,1.9799,0,1.9897,1.9891,1.9902,1.9896,1.9868,1.9874,1.9863,1.9846,1.9843,1.9834,1.9832,1.9825,1.9821,1.9816,1.9789,1.9769,1.9802,1.9768,1.9791,1.9792,1.98,1.98,1.9882,1.9798,1.9798,1.9798,1.9798,0,1.9835,1.9826,1.9845,1.9822,1.9821,1.9828,1.9818,1.9817,1.9802,1.9789,1.9782,1.9756,1.9762,1.9732,1.9741,1.9722,1.972,1.9711,1.9712,1.9711,1.9677,1.9728,1.9809,1.9817,1.9711,1.971,1.9709,0,1.9775,1.9787,1.9758,1.9777,1.9778,1.974,1.9747,1.9734,1.9717,1.9716,1.9697,1.9696,1.9667,1.9662,1.967,1.9651,1.9675,1.9647,1.9646,1.9647,1.9652,1.9727,1.9746,1.9795,1.9699,1.9701,1.9701,0,1.9725,1.969,1.9696,1.9688,1.9664,1.9665,1.9673,1.9664,1.9665,1.9653,1.9659,1.9656,1.9634,1.9627,1.9605,1.9615,1.9658,1.959,1.9589,1.9603,1.9692,1.971,1.9718,1.9641,1.9642,1.9643,1.9693,0,1.9638,1.9639,1.9652,1.9634,1.963,1.964,1.9609,1.9609,1.9588,1.9569,1.9577,1.9558,1.9548,1.955,1.9529,1.956,1.955,1.9527,1.9494,1.9543,1.9559,1.9566,1.9473,1.9472,1.9471,1.947,0,0,1.9587,1.9589,1.9556,1.9562,1.9557,1.9516,1.9529,1.9519,1.9499,1.9496,1.9478,1.9471,1.9456,1.9469,1.9482,1.9478,1.9481,1.9464,1.952,1.9526,1.9531,1.9548,1.9556,1.9468,1.9468,1.9468,1.9467,0,1.9549,1.9534,1.9547,1.9534,1.9515,1.9494,1.9498,1.9471,1.9459,1.9466,1.9432,1.9433,1.9428,1.9417,1.9411,1.9462,1.9436,1.9462,1.95,1.9511,1.9518,1.9524,1.9543,1.9551,1.9465,1.9465,1.9465,0,1.9494,1.9475,1.9477,1.9462,1.9449,1.9451,1.9409,1.9413,1.9414,1.9368,1.9375,1.936,1.9342,1.9358,1.9364,1.9347,1.9398,1.9376,1.9381,1.9381,1.939,1.9399,1.9406,1.9308,1.9307,1.9307,0,0,1.9465,1.9466,1.9434,1.9451,1.9445,1.9414,1.9411,1.9389,1.9374,1.9368,1.9347,1.9334,1.933,1.9329,1.9324,1.9345,1.9339,1.9358,1.9365,1.9371,1.9375,1.9386,1.9394,1.9305,1.9305,1.9305,0,0,1.9451,1.9415,1.9395,1.9411,1.9398,1.9367,1.9379,1.9355,1.9347,1.9342,1.9305,1.93,1.9314,1.93,1.9283,1.9311,1.928,1.9283,1.932,1.9329,1.9336,1.9339,1.9237,0,0,0,0,0,1.9395,1.9419,1.9402,1.94,1.938,1.9377,1.9374,1.9344,1.9323,1.9333,1.9312,1.9284,1.9283,1.9267,1.9265,1.9285,1.9285,1.9289,1.9292,1.9344,1.9353,1.9362,0,0,0,0,0,0,1.9394,1.9391,1.9401,1.9373,1.9368,1.9376,1.9333,1.9325,1.9321,1.9315,1.9289,1.9283,1.9257,1.9265,1.9265,1.9284,1.9237,1.9286,1.9289,1.9292,1.9347,1.9355,1.9362,0,0,0,0,0,1.9393,1.9391,1.9366,1.9372,1.9368,1.9334,1.9332,1.9325,1.9321,1.9288,1.9282,1.9298,1.9259,1.9256,1.9265,1.9285,1.9237,1.9237,1.9288,1.9291,1.9293,1.9351,0,0,0,0,0,0,1.9392,1.9384,1.9364,1.9362,1.936,1.9332,1.9327,1.9325,1.9294,1.9287,1.9296,1.9292,1.926,1.9258,1.9256,1.9287,1.9238,1.9238,1.9237,1.929,1.9292,1.9294,0,0,0,0,0,0,1.9385,1.9383,1.9363,1.935,1.9346,1.9332,1.9327,1.933,1.9294,1.9303,1.9298,1.9295,1.9263,1.9259,1.9257,1.9263,1.9238,1.9238,1.9238,1.9238,1.9292,1.9293,0,0,0,0,0,0,1.9384,1.9381,1.935,1.9347,1.9343,1.9314,1.9334,1.9315,1.9283,1.9305,1.9279,1.9277,1.9265,1.9263,1.9259,1.9265,1.9263,1.9238,1.9238,1.9238,1.9238,0,0,0,0,0,0,0,1.9382,1.9404,1.9379,1.9345,1.9341,1.934,1.9339,1.9338,1.9282,1.9281,1.9279,1.9278,1.9239,1.9239,1.9239,1.9267,0,0,1.9238,1.9238,0,0,0,0,0,0,0,0,1.9405,1.9404,1.9379,1.9378,1.9378,1.934,1.9339,1.9339,1.9282,1.9281,1.928,1.9278,1.9239,1.9239,1.9239,0,0,0,0,0,0,0,0,0,0,0,0,0,0,0,1.9379,1.9378,0,1.934,1.9339,1.9339,1.9282,1.9281,1.928,1.9279,1.9239,1.9239,1.9239,0,0,0,0,0,0,0,0,0,0,0,0,0,0,0,0,0,0,0,0,0,0,0,0,0,0,0,0,0,0,0,0,0,0,0,0,0,0,0,0,0,0,0,0,0,0,0,0,0,0,0,0,0,0,0,0,0,0,0,0,0,0,0,0,0,0,0,0,0]}]]]